SCP
0 0 0 0 0 0 0 0 0 0 0 0 0 0 0 0 0 0 0 0 0 0 0 0 0 0 0 0 0 0 0 0 0 0 0 0 0 0 0 0 0 0 0
0 0 0 0 0 0 0 0 0 0 0 0 0 0 0 0 0 0 0 0 0 0 0 0 0 0 0 0 0 0 0 0 0 0 0 0 0 0 0 0 0 0 0
0 0 0 0 0 0 0 0 0 0 0 0 0 0 0 0 0 0 0 0 0 0 0 0 0 0 0 0 0 0 0 0 0 0 0 0 0 0 0 0 0 0 0
0 0 0 0 0 0 0 0 0 0 0 0 0 0 0 0 0 0 0 0 0 0 0 0 0 0 0 0 0 0 0 0 0 0 0 0 0 0 0 0 0 0 0
0 0 0 0 0 0 0 0 0 0 0 0 0 0 0 0 0 0 0 0 0 0 0 0 0 0 0 0 0 0 0 0 0 0 0 0 0 0 0 0 0 0 0
0 0 0 0 0 0 0 0 0 0 0 0 0 0 0 0 0 0 0 0 0 0 0 0 0 0 0 0 0 0 0 0 0 0 0 0 0 0 0 0 0 0 0
0 0 0 0 0 0 0 0 0 0 0 0 0 0 0 0 0 0 0 0 0 0 0 0 0 0 0 0 0 0 0 0 0 0 0 0 0 0 0 0 0 0 0
0 0 0 0 0 0 0 0 0 0 0 0 0 0 0 0 0 0 0 0 0 0 0 0 0 0 0 0 0 0 0 0 0 0 0 0 0 0 0 0 0 0 0
0 0 0 0 0 0 0 -0 0 0 0 0 0 0 0 0 0 0 0 0 0 0 0 0 0 0 0 0 0 0 0 0 0 0 0 0 0 0 0 0 0 0 0
-0 -0 0 0 0 0 0 0 0 0 0 0 0 0 0 0 0 0 0 0 0 0 0 0 0 0 0 0 0 0 0 0 0 0 0 0 0 0 0 0 0 0 0
0 0 0 0 0 0 0 0 0 0 0 0 0 0 0 0 0 0 0 0 0 0 0 0 0 0 0 0 0 0 0 0 0 0 0 0 0 0 0 0 0 0 0
0 0 0 0 0 0 0 0 0 0 0 0 0 0 0 0 0 0 0 0 0 0 0 0 0 0 0 0 0 0 0 0 0 0 0 0 0 0 0 0 0 0 0
0 0 0 0 0 0 0 0 0 0 0 0 0 0 0 0 0 0 0 0 0 0 0 0 0 0 0 0 0 0 0 0 0 0 0 0 0 0 0 0 0 0 0
0 0 0 0 0 0 0 0 0 0 0 0 0 0 0 0 0 0 0 0 0 0 0 0 0 0 0 0 0 0 0 0 0 0 0 0 0 0 0 0 0 0 0
0 0 0 0 0 0 0 0 0 0 0 0 0 0 0 0 0 0 0 0 0 0 0 0 0 0 0 0 0 0 0 0 0 0 0 0 0 0 0 0 0 0 0
0 0 0 0 0 0 0 0 0 0 0 0 0 0 0 0 0 0 0 0 0 0 0 0 0 0 0 0 0 0 0 0 0 0 0 0 0 0 0 0 0 0 0
0 0 0 0 0 0 0 0 0 0 0 0 0 0 0 0 0 0 0 0 0 0 0 0 0 0 0 0 0 0 0 0 0 0 0 0 0 0 0 0 0 0 0
0 0 0 0 0 0 0 0 0 0 0 0 0 0 0 0 0 0 0 0 0 0 0 0 0 0 0 0 0 0 0 0 0 0 0 0 0 0 0 0 0 0 0
0 0 0 0 0 0 0 0 0 0 0 0 0 0 0 0 0 0 0 0 0 0 0 0 0 0 0 0 0 0 0 0 0 0 0 0 0 0 0 0 0 0 0
0 0 0 0 0 0 0 0 0 0 0 0 0 0 0 0 0 0 0 0 0 0 0 0 0 0 0 0 0 0 0 0 0 0 0 0 0 0 0 0 0 0 0
0 0 0 0 0 0 0 0 0 0 0 0 0 0 0 0 0 0 0 0 0 0 0 0 0 0 0 0 0 0 0 0 0 0 0 0 0 0 0 0 0 0 0
0 0 0 0 0 0 0 0 0 0 0 0 0 0 0 0 0 0 0 0 0 0 0 0 0 0 0 0 0 0 0 0 0 0 0 0 0 0 0 0 0 0 0
0 0 0 0 0 0 0 0 0 0 0 0 0 0 0 0 0 0 0 0 0 0 0 0 0 0 0 0 0 0 0 0 0 0 0 0 0 0 0 0 0 0 0
0 0 0 0 0 0 0 0 0 0 0 0 0 0 0 0 0 0 0 0 0 0 0 0 0 0 0 0 0 0 0 0 0 0 0 0 0 0 0 0 0 0 0
0 0 0 0 0 0 0 0 0 0 0 0 0 0 0 0 0 0 0 0 0 0 0 0 0 0 0 0 0 0 0 0 0 0 0 0 0 0 0 0 0 0 0
0 0 0 0 0 0 0 0 0 0 0 0 0 0 0 0 0 0 0 0 0 0 0 0 0 0 0 0 0 0 0 0 0 0 0 0 0 0 0 0 0 0 0
Wind_Speed_500mb
81 74 76 82 81 83 84 82 76 72 67 64 63 59 53 45 37 32 30 29 30 28 25 23 21 19 19 17 17 17 18 19 27 35 37 31 22 17 12 9 9 12 16
54 74 85 94 98 99 99 91 84 75 70 66 64 59 53 42 34 34 31 29 28 26 22 17 16 18 18 18 18 18 20 22 35 40 43 29 26 23 18 13 12 11 13
52 63 87 100 102 106 107 100 88 75 66 62 59 55 50 43 42 37 30 28 27 24 21 20 19 20 20 18 18 19 23 23 35 45 29 21 16 37 24 18 14 8 9
52 61 80 97 103 103 107 100 83 69 59 58 58 55 54 49 39 29 27 27 26 24 21 20 21 21 20 19 19 21 25 26 29 51 50 27 29 22 26 27 18 9 5
34 46 53 64 70 85 100 89 71 62 57 55 52 49 46 35 32 31 28 28 26 25 24 23 21 21 20 21 22 21 22 24 28 34 49 44 35 37 40 43 31 18 9
6 29 41 50 59 69 76 70 61 54 47 51 50 47 42 40 36 33 32 29 28 27 27 25 23 20 21 22 19 17 18 17 19 28 32 31 45 41 43 41 42 24 17
16 27 35 41 48 53 59 52 37 34 50 47 51 39 39 40 31 33 32 33 27 26 27 25 21 22 19 19 17 12 12 10 12 19 25 28 34 38 41 44 49 34 25
7 20 29 40 46 46 33 34 46 51 48 43 37 40 45 42 38 35 30 30 21 23 27 24 23 20 17 17 16 11 12 9 11 15 19 22 29 40 45 45 45 38 17
7 14 21 24 28 33 33 24 27 32 30 42 41 44 49 44 40 37 37 32 27 28 27 21 20 21 20 16 15 13 14 14 14 16 17 17 21 25 31 38 39 32 22
15 12 17 26 37 45 46 39 20 18 34 47 39 45 48 46 37 42 43 40 32 32 25 24 25 26 21 18 20 18 19 18 19 19 19 20 21 23 30 35 38 30 15
20 31 40 45 46 47 45 46 38 34 41 36 40 57 59 49 42 43 43 44 36 31 27 29 31 27 24 25 24 23 21 20 20 21 18 18 19 21 26 29 32 31 27
73 47 40 40 55 57 57 56 52 55 54 52 47 49 57 51 48 48 51 46 43 36 32 32 31 30 30 29 28 26 23 21 21 20 19 17 19 19 19 20 20 18 17
52 53 46 52 58 63 64 62 65 68 62 55 55 61 57 49 49 48 56 50 46 37 34 34 35 36 34 32 31 27 25 24 24 22 20 18 18 18 17 16 18 16 17
24 43 53 63 62 65 72 78 76 77 69 72 70 63 60 58 41 51 54 51 46 39 36 36 37 37 36 34 32 30 28 27 27 26 24 20 20 18 15 16 16 16 15
15 19 21 26 37 54 64 74 79 92 93 85 82 72 66 66 56 56 57 56 51 41 42 42 43 40 37 35 34 33 30 29 28 27 26 24 22 21 17 15 15 16 13
19 20 25 35 44 46 50 51 60 78 94 90 78 71 72 68 61 58 56 56 51 54 35 46 44 41 41 39 36 35 34 32 30 28 27 26 23 21 19 17 17 17 15
27 23 30 36 44 36 41 44 46 55 75 81 79 76 69 72 71 65 60 54 56 44 48 48 49 42 37 37 40 37 35 31 29 28 27 26 25 23 21 19 19 17 15
26 26 30 35 27 28 32 34 27 35 51 65 68 73 72 76 77 68 60 56 54 48 50 56 49 42 41 42 42 39 34 31 28 28 28 27 25 24 22 21 19 16 14
25 29 32 35 32 31 32 29 31 30 40 53 68 70 65 77 79 70 59 54 50 52 56 56 51 44 43 45 43 42 39 35 33 31 30 29 28 27 24 22 20 17 14
32 43 43 36 32 27 31 24 23 20 26 33 44 48 60 72 75 71 60 58 55 58 62 63 46 42 45 45 46 46 43 39 37 35 34 33 31 30 27 24 21 17 14
41 46 42 38 33 24 23 22 22 22 20 28 36 44 49 57 62 62 52 55 60 58 57 54 53 56 50 50 51 48 45 44 39 37 37 34 31 29 27 24 21 19 17
41 32 27 27 26 20 18 12 14 16 23 25 29 34 35 43 52 55 56 53 52 51 56 56 54 56 49 52 53 48 48 44 41 38 32 32 33 31 30 26 23 23 22
30 22 24 18 16 19 16 10 5 16 24 26 28 29 28 37 44 52 50 52 51 52 54 58 58 59 54 54 50 46 47 46 44 38 33 32 33 33 31 29 27 25 25
23 24 36 22 17 24 19 13 10 15 25 25 27 29 34 43 49 47 47 48 50 52 53 57 60 58 53 52 49 50 48 46 45 42 39 41 41 37 33 36 33 28 29
19 19 17 15 15 22 18 14 15 16 26 31 31 36 38 48 49 45 43 47 46 45 46 49 55 58 54 48 45 45 44 40 37 40 43 44 46 44 40 36 34 33 35
17 16 16 14 14 15 12 12 16 14 20 38 38 40 46 52 52 51 47 48 45 41 39 37 35 40 32 27 27 28 31 33 34 44 49 49 46 46 43 41 40 40 40
Wind_Direction_500mb
251 238 229 223 220 213 208 205 201 203 208 208 210 213 217 216 217 220 220 219 223 226 231 230 231 237 243 236 226 218 200 179 172 167 155 151 155 164 155 113 77 62 40
258 241 231 223 220 214 208 204 205 206 209 216 217 218 214 210 214 218 218 216 220 222 226 233 236 238 241 238 230 217 210 182 178 177 169 134 139 152 139 131 112 72 24
276 237 225 223 218 214 207 203 202 205 210 214 213 209 205 207 208 208 209 210 215 217 221 229 235 238 240 241 237 226 222 207 191 192 182 164 171 149 143 137 114 72 358
289 251 229 214 212 209 205 201 200 204 210 213 211 214 213 209 212 210 206 206 210 216 220 224 230 239 243 244 246 241 235 230 216 199 205 209 194 167 150 154 146 136 351
308 233 203 200 198 197 197 194 197 204 203 216 220 221 222 213 207 200 207 208 207 211 217 218 223 235 246 249 246 245 244 237 230 218 220 226 211 197 171 158 159 151 120
177 188 190 195 194 194 192 193 202 204 210 213 224 224 211 208 207 210 206 201 209 211 215 220 225 232 243 252 254 251 248 241 232 229 221 213 193 187 182 169 161 164 120
138 166 183 188 189 191 196 200 205 217 218 218 214 215 227 226 237 229 210 211 215 219 222 223 228 233 238 249 256 254 252 240 217 214 213 201 191 195 191 184 171 160 146
173 192 194 194 190 186 186 226 221 214 215 220 225 226 226 228 242 241 228 230 224 222 228 224 226 230 236 244 248 241 236 215 199 190 186 189 187 189 196 193 189 160 166
137 172 176 179 193 215 217 239 240 241 245 232 229 226 223 228 234 242 235 238 229 228 222 228 237 237 228 227 233 222 217 187 178 173 168 167 162 170 185 198 200 196 164
136 156 224 239 246 235 245 240 234 235 236 236 240 237 236 233 238 234 233 237 228 234 226 234 235 230 222 218 223 215 204 194 179 174 170 166 159 159 167 179 191 200 208
272 261 244 236 220 219 224 226 224 224 224 219 236 241 236 232 236 236 237 238 233 239 236 238 232 223 224 218 215 209 210 203 194 183 174 166 160 164 174 183 201 217 229
285 274 255 236 227 222 223 225 225 227 227 233 233 226 230 235 238 242 237 235 233 232 233 235 229 226 221 218 215 214 209 206 205 196 180 177 171 169 172 177 185 191 199
294 278 262 250 241 231 228 234 238 236 232 232 235 234 233 232 235 241 235 233 232 228 230 229 228 224 215 214 216 215 213 203 205 202 193 187 180 180 183 179 180 179 193
283 262 257 254 245 245 241 240 239 236 238 229 232 234 238 237 243 239 236 231 232 234 228 229 226 219 214 217 223 218 213 208 209 208 205 201 199 194 197 194 192 192 191
259 300 299 283 269 261 261 254 246 236 234 231 233 232 233 234 236 230 225 227 239 228 234 228 217 213 217 221 223 222 221 218 215 213 212 210 207 205 204 198 199 203 205
292 300 304 290 282 280 277 270 260 248 239 237 233 231 235 230 231 225 227 229 232 229 229 219 217 211 215 218 222 227 231 222 219 219 213 209 206 203 203 197 197 206 210
294 290 310 309 300 275 278 274 265 255 243 234 233 231 230 227 224 224 224 226 228 221 217 217 216 213 217 225 225 224 226 227 223 219 216 211 208 207 206 203 200 203 207
302 292 311 320 308 308 301 293 278 258 246 237 232 233 229 228 223 222 222 222 224 220 213 216 216 212 220 223 224 224 222 221 220 216 213 211 211 210 207 205 201 204 207
322 316 319 321 317 308 302 301 289 263 242 233 229 233 231 225 223 217 214 219 226 213 213 216 218 221 216 227 227 226 223 221 220 217 214 213 213 212 210 209 209 210 217
310 312 312 299 308 312 310 298 288 271 246 241 237 240 236 231 225 222 230 225 221 216 212 218 219 211 225 230 227 227 229 228 226 222 221 219 217 215 214 218 217 221 228
306 317 304 277 283 298 302 299 286 276 273 251 245 238 239 237 229 227 236 230 225 220 223 222 211 216 218 230 227 230 233 232 232 230 229 227 226 224 222 222 223 228 239
320 318 307 293 270 281 290 296 278 261 252 246 243 241 239 234 227 229 233 231 226 221 221 220 217 222 220 229 228 229 234 232 233 233 233 232 232 230 228 228 228 236 245
332 335 320 312 283 271 271 275 312 238 235 237 233 233 234 231 231 236 233 230 226 223 223 220 224 222 219 226 226 226 228 230 231 228 225 231 234 235 232 235 241 245 248
304 300 310 328 266 264 249 257 277 247 225 229 220 220 224 232 235 235 233 232 230 226 227 225 227 222 220 219 218 222 224 226 228 229 233 233 234 235 234 236 246 252 252
294 315 286 334 356 261 251 264 285 273 228 220 227 225 235 238 238 238 239 236 238 241 238 237 229 223 215 216 222 225 229 235 239 238 235 236 240 243 244 248 253 257 258
290 312 297 304 293 265 277 293 299 281 239 223 225 228 233 233 238 239 237 241 240 244 243 248 239 211 216 219 226 233 236 240 240 239 241 246 248 251 253 256 258 260 260
Wind_Speed_850mb
81 74 76 82 81 83 84 82 76 72 67 64 63 59 53 45 37 32 30 29 30 28 25 23 21 19 19 17 17 17 18 19 27 35 37 31 22 17 12 9 9 12 16
54 74 85 94 98 99 99 91 84 75 70 66 64 59 53 42 34 34 31 29 28 26 22 17 16 18 18 18 18 18 20 22 35 40 43 29 26 23 18 13 12 11 13
52 63 87 100 102 106 107 100 88 75 66 62 59 55 50 43 42 37 30 28 27 24 21 20 19 20 20 18 18 19 23 23 35 45 29 21 16 37 24 18 14 8 9
52 61 80 97 103 103 107 100 83 69 59 58 58 55 54 49 39 29 27 27 26 24 21 20 21 21 20 19 19 21 25 26 29 51 50 27 29 22 26 27 18 9 5
34 46 53 64 70 85 100 89 71 62 57 55 52 49 46 35 32 31 28 28 26 25 24 23 21 21 20 21 22 21 22 24 28 34 49 44 35 37 40 43 31 18 9
6 29 41 50 59 69 76 70 61 54 47 51 50 47 42 40 36 33 32 29 28 27 27 25 23 20 21 22 19 17 18 17 19 28 32 31 45 41 43 41 42 24 17
16 27 35 41 48 53 59 52 37 34 50 47 51 39 39 40 31 33 32 33 27 26 27 25 21 22 19 19 17 12 12 10 12 19 25 28 34 38 41 44 49 34 25
7 20 29 40 46 46 33 34 46 51 48 43 37 40 45 42 38 35 30 30 21 23 27 24 23 20 17 17 16 11 12 9 11 15 19 22 29 40 45 45 45 38 17
7 14 21 24 28 33 33 24 27 32 30 42 41 44 49 44 40 37 37 32 27 28 27 21 20 21 20 16 15 13 14 14 14 16 17 17 21 25 31 38 39 32 22
15 12 17 26 37 45 46 39 20 18 34 47 39 45 48 46 37 42 43 40 32 32 25 24 25 26 21 18 20 18 19 18 19 19 19 20 21 23 30 35 38 30 15
20 31 40 45 46 47 45 46 38 34 41 36 40 57 59 49 42 43 43 44 36 31 27 29 31 27 24 25 24 23 21 20 20 21 18 18 19 21 26 29 32 31 27
73 47 40 40 55 57 57 56 52 55 54 52 47 49 57 51 48 48 51 46 43 36 32 32 31 30 30 29 28 26 23 21 21 20 19 17 19 19 19 20 20 18 17
52 53 46 52 58 63 64 62 65 68 62 55 55 61 57 49 49 48 56 50 46 37 34 34 35 36 34 32 31 27 25 24 24 22 20 18 18 18 17 16 18 16 17
24 43 53 63 62 65 72 78 76 77 69 72 70 63 60 58 41 51 54 51 46 39 36 36 37 37 36 34 32 30 28 27 27 26 24 20 20 18 15 16 16 16 15
15 19 21 26 37 54 64 74 79 92 93 85 82 72 66 66 56 56 57 56 51 41 42 42 43 40 37 35 34 33 30 29 28 27 26 24 22 21 17 15 15 16 13
19 20 25 35 44 46 50 51 60 78 94 90 78 71 72 68 61 58 56 56 51 54 35 46 44 41 41 39 36 35 34 32 30 28 27 26 23 21 19 17 17 17 15
27 23 30 36 44 36 41 44 46 55 75 81 79 76 69 72 71 65 60 54 56 44 48 48 49 42 37 37 40 37 35 31 29 28 27 26 25 23 21 19 19 17 15
26 26 30 35 27 28 32 34 27 35 51 65 68 73 72 76 77 68 60 56 54 48 50 56 49 42 41 42 42 39 34 31 28 28 28 27 25 24 22 21 19 16 14
25 29 32 35 32 31 32 29 31 30 40 53 68 70 65 77 79 70 59 54 50 52 56 56 51 44 43 45 43 42 39 35 33 31 30 29 28 27 24 22 20 17 14
32 43 43 36 32 27 31 24 23 20 26 33 44 48 60 72 75 71 60 58 55 58 62 63 46 42 45 45 46 46 43 39 37 35 34 33 31 30 27 24 21 17 14
41 46 42 38 33 24 23 22 22 22 20 28 36 44 49 57 62 62 52 55 60 58 57 54 53 56 50 50 51 48 45 44 39 37 37 34 31 29 27 24 21 19 17
41 32 27 27 26 20 18 12 14 16 23 25 29 34 35 43 52 55 56 53 52 51 56 56 54 56 49 52 53 48 48 44 41 38 32 32 33 31 30 26 23 23 22
30 22 24 18 16 19 16 10 5 16 24 26 28 29 28 37 44 52 50 52 51 52 54 58 58 59 54 54 50 46 47 46 44 38 33 32 33 33 31 29 27 25 25
23 24 36 22 17 24 19 13 10 15 25 25 27 29 34 43 49 47 47 48 50 52 53 57 60 58 53 52 49 50 48 46 45 42 39 41 41 37 33 36 33 28 29
19 19 17 15 15 22 18 14 15 16 26 31 31 36 38 48 49 45 43 47 46 45 46 49 55 58 54 48 45 45 44 40 37 40 43 44 46 44 40 36 34 33 35
17 16 16 14 14 15 12 12 16 14 20 38 38 40 46 52 52 51 47 48 45 41 39 37 35 40 32 27 27 28 31 33 34 44 49 49 46 46 43 41 40 40 40
Wind_Direction_850mb
251 238 229 223 220 213 208 205 201 203 208 208 210 213 217 216 217 220 220 219 223 226 231 230 231 237 243 236 226 218 200 179 172 167 155 151 155 164 155 113 77 62 40
258 241 231 223 220 214 208 204 205 206 209 216 217 218 214 210 214 218 218 216 220 222 226 233 236 238 241 238 230 217 210 182 178 177 169 134 139 152 139 131 112 72 24
276 237 225 223 218 214 207 203 202 205 210 214 213 209 205 207 208 208 209 210 215 217 221 229 235 238 240 241 237 226 222 207 191 192 182 164 171 149 143 137 114 72 358
289 251 229 214 212 209 205 201 200 204 210 213 211 214 213 209 212 210 206 206 210 216 220 224 230 239 243 244 246 241 235 230 216 199 205 209 194 167 150 154 146 136 351
308 233 203 200 198 197 197 194 197 204 203 216 220 221 222 213 207 200 207 208 207 211 217 218 223 235 246 249 246 245 244 237 230 218 220 226 211 197 171 158 159 151 120
177 188 190 195 194 194 192 193 202 204 210 213 224 224 211 208 207 210 206 201 209 211 215 220 225 232 243 252 254 251 248 241 232 229 221 213 193 187 182 169 161 164 120
138 166 183 188 189 191 196 200 205 217 218 218 214 215 227 226 237 229 210 211 215 219 222 223 228 233 238 249 256 254 252 240 217 214 213 201 191 195 191 184 171 160 146
173 192 194 194 190 186 186 226 221 214 215 220 225 226 226 228 242 241 228 230 224 222 228 224 226 230 236 244 248 241 236 215 199 190 186 189 187 189 196 193 189 160 166
137 172 176 179 193 215 217 239 240 241 245 232 229 226 223 228 234 242 235 238 229 228 222 228 237 237 228 227 233 222 217 187 178 173 168 167 162 170 185 198 200 196 164
136 156 224 239 246 235 245 240 234 235 236 236 240 237 236 233 238 234 233 237 228 234 226 234 235 230 222 218 223 215 204 194 179 174 170 166 159 159 167 179 191 200 208
272 261 244 236 220 219 224 226 224 224 224 219 236 241 236 232 236 236 237 238 233 239 236 238 232 223 224 218 215 209 210 203 194 183 174 166 160 164 174 183 201 217 229
285 274 255 236 227 222 223 225 225 227 227 233 233 226 230 235 238 242 237 235 233 232 233 235 229 226 221 218 215 214 209 206 205 196 180 177 171 169 172 177 185 191 199
294 278 262 250 241 231 228 234 238 236 232 232 235 234 233 232 235 241 235 233 232 228 230 229 228 224 215 214 216 215 213 203 205 202 193 187 180 180 183 179 180 179 193
283 262 257 254 245 245 241 240 239 236 238 229 232 234 238 237 243 239 236 231 232 234 228 229 226 219 214 217 223 218 213 208 209 208 205 201 199 194 197 194 192 192 191
259 300 299 283 269 261 261 254 246 236 234 231 233 232 233 234 236 230 225 227 239 228 234 228 217 213 217 221 223 222 221 218 215 213 212 210 207 205 204 198 199 203 205
292 300 304 290 282 280 277 270 260 248 239 237 233 231 235 230 231 225 227 229 232 229 229 219 217 211 215 218 222 227 231 222 219 219 213 209 206 203 203 197 197 206 210
294 290 310 309 300 275 278 274 265 255 243 234 233 231 230 227 224 224 224 226 228 221 217 217 216 213 217 225 225 224 226 227 223 219 216 211 208 207 206 203 200 203 207
302 292 311 320 308 308 301 293 278 258 246 237 232 233 229 228 223 222 222 222 224 220 213 216 216 212 220 223 224 224 222 221 220 216 213 211 211 210 207 205 201 204 207
322 316 319 321 317 308 302 301 289 263 242 233 229 233 231 225 223 217 214 219 226 213 213 216 218 221 216 227 227 226 223 221 220 217 214 213 213 212 210 209 209 210 217
310 312 312 299 308 312 310 298 288 271 246 241 237 240 236 231 225 222 230 225 221 216 212 218 219 211 225 230 227 227 229 228 226 222 221 219 217 215 214 218 217 221 228
306 317 304 277 283 298 302 299 286 276 273 251 245 238 239 237 229 227 236 230 225 220 223 222 211 216 218 230 227 230 233 232 232 230 229 227 226 224 222 222 223 228 239
320 318 307 293 270 281 290 296 278 261 252 246 243 241 239 234 227 229 233 231 226 221 221 220 217 222 220 229 228 229 234 232 233 233 233 232 232 230 228 228 228 236 245
332 335 320 312 283 271 271 275 312 238 235 237 233 233 234 231 231 236 233 230 226 223 223 220 224 222 219 226 226 226 228 230 231 228 225 231 234 235 232 235 241 245 248
304 300 310 328 266 264 249 257 277 247 225 229 220 220 224 232 235 235 233 232 230 226 227 225 227 222 220 219 218 222 224 226 228 229 233 233 234 235 234 236 246 252 252
294 315 286 334 356 261 251 264 285 273 228 220 227 225 235 238 238 238 239 236 238 241 238 237 229 223 215 216 222 225 229 235 239 238 235 236 240 243 244 248 253 257 258
290 312 297 304 293 265 277 293 299 281 239 223 225 228 233 233 238 239 237 241 240 244 243 248 239 211 216 219 226 233 236 240 240 239 241 246 248 251 253 256 258 260 260